| time (UTC) | temp F | wind direction | speed MPH | gust MPH | rain 1hr in | rain 24hr in | rain mn in | humidity % | barometer mb |
| 20260503231727 | 60 | 270 | 8.0 | 15.0 | 0.00 | 0.00 | 0.00 | 35 | 1011.0 |
| 20260503231219 | 60 | 285 | 9.0 | 16.0 | 0.00 | 0.00 | 0.00 | 35 | 1011.0 |
| 20260503230713 | 60 | 295 | 11.0 | 16.0 | 0.00 | 0.00 | 0.00 | 34 | 1010.9 |
| 20260503230214 | 60 | 219 | 11.0 | 16.0 | 0.00 | 0.00 | 0.00 | 34 | 1010.9 |
| 20260503230123 | 60 | 289 | 13.0 | 21.0 | 0.00 | 0.00 | 0.00 | 33 | 1010.9 |
| 20260503225141 | 60 | 257 | 13.0 | 21.0 | 0.00 | 0.00 | 0.00 | 35 | 1010.7 |
| 20260503224642 | 60 | 265 | 11.0 | 17.0 | 0.00 | 0.00 | 0.00 | 34 | 1010.7 |
| 20260503224113 | 61 | 258 | 11.0 | 18.0 | 0.00 | 0.00 | 0.00 | 35 | 1010.7 |
| 20260503223610 | 61 | 292 | 13.0 | 21.0 | 0.00 | 0.00 | 0.00 | 34 | 1010.7 |
| 20260503223111 | 61 | 293 | 14.0 | 21.0 | 0.00 | 0.00 | 0.00 | 35 | 1010.7 |
| 20260503222550 | 61 | 302 | 14.0 | 20.0 | 0.00 | 0.00 | 0.00 | 34 | 1010.7 |
| 20260503222049 | 61 | 296 | 13.0 | 20.0 | 0.00 | 0.00 | 0.00 | 33 | 1010.7 |
| 20260503221815 | 61 | 298 | 16.0 | 26.0 | 0.00 | 0.00 | 0.00 | 35 | 1010.7 |
| 20260503221032 | 61 | 330 | 17.0 | 27.0 | 0.00 | 0.00 | 0.00 | 34 | 1010.7 |
| 20260503220527 | 61 | 246 | 15.0 | 27.0 | 0.00 | 0.00 | 0.00 | 33 | 1010.6 |
| 20260503220028 | 62 | 261 | 14.0 | 23.0 | 0.00 | 0.00 | 0.00 | 33 | 1010.6 |
| 20260503215506 | 61 | 252 | 15.0 | 23.0 | 0.00 | 0.00 | 0.00 | 33 | 1010.6 |
| 20260503215006 | 61 | 303 | 15.0 | 25.0 | 0.00 | 0.00 | 0.00 | 33 | 1010.5 |
| 20260503214705 | 61 | 286 | 15.0 | 25.0 | 0.00 | 0.00 | 0.00 | 33 | 1010.5 |
| 20260503213948 | 61 | 284 | 15.0 | 22.0 | 0.00 | 0.00 | 0.00 | 34 | 1010.5 |
| 20260503213447 | 62 | 299 | 15.0 | 21.0 | 0.00 | 0.00 | 0.00 | 32 | 1010.5 |
| 20260503212945 | 62 | 301 | 15.0 | 21.0 | 0.00 | 0.00 | 0.00 | 34 | 1010.5 |
| 20260503212441 | 62 | 280 | 14.0 | 24.0 | 0.00 | 0.00 | 0.00 | 34 | 1010.6 |
| 20260503211940 | 61 | 285 | 16.0 | 24.0 | 0.00 | 0.00 | 0.00 | 35 | 1010.6 |
| 20260503211437 | 61 | 315 | 16.0 | 24.0 | 0.00 | 0.00 | 0.00 | 34 | 1010.6 |
| 20260503210914 | 61 | 291 | 16.0 | 28.0 | 0.00 | 0.00 | 0.00 | 36 | 1010.5 |
| 20260503210417 | 61 | 269 | 15.0 | 28.0 | 0.00 | 0.00 | 0.00 | 35 | 1010.5 |
| 20260503205851 | 61 | 284 | 15.0 | 24.0 | 0.00 | 0.00 | 0.00 | 32 | 1010.5 |
| 20260503205323 | 61 | 297 | 18.0 | 26.0 | 0.00 | 0.00 | 0.00 | 32 | 1010.4 |
| 20260503205049 | 61 | 270 | 16.0 | 26.0 | 0.00 | 0.00 | 0.00 | 34 | 1010.4 |
| 20260503204253 | 61 | 301 | 16.0 | 26.0 | 0.00 | 0.00 | 0.00 | 32 | 1010.4 |
| 20260503203750 | 62 | 253 | 15.0 | 28.0 | 0.00 | 0.00 | 0.00 | 33 | 1010.3 |
| 20260503203704 | 62 | 323 | 14.0 | 28.0 | 0.00 | 0.00 | 0.00 | 33 | 1010.3 |
| 20260503202723 | 62 | 270 | 15.0 | 22.0 | 0.00 | 0.00 | 0.00 | 33 | 1010.3 |
| 20260503202215 | 62 | 279 | 14.0 | 22.0 | 0.00 | 0.00 | 0.00 | 34 | 1010.3 |
| 20260503201711 | 61 | 257 | 15.0 | 24.0 | 0.00 | 0.00 | 0.00 | 34 | 1010.3 |
| 20260503201434 | 61 | 301 | 15.0 | 24.0 | 0.00 | 0.00 | 0.00 | 34 | 1010.3 |
| 20260503201159 | 60 | 256 | 14.0 | 23.0 | 0.00 | 0.00 | 0.00 | 35 | 1010.6 |
| 20260503200155 | 60 | 258 | 15.0 | 23.0 | 0.00 | 0.00 | 0.00 | 34 | 1010.6 |
| 20260503195858 | 60 | 280 | 15.0 | 23.0 | 0.00 | 0.00 | 0.00 | 34 | 1010.6 |
| 20260503195112 | 61 | 266 | 16.0 | 25.0 | 0.00 | 0.00 | 0.00 | 37 | 1010.7 |
| 20260503194551 | 61 | 257 | 17.0 | 25.0 | 0.00 | 0.00 | 0.00 | 34 | 1010.7 |
| 20260503194052 | 61 | 280 | 16.0 | 24.0 | 0.00 | 0.00 | 0.00 | 37 | 1010.7 |
| 20260503193553 | 60 | 281 | 17.0 | 24.0 | 0.00 | 0.00 | 0.00 | 37 | 1010.7 |
| 20260503193050 | 60 | 319 | 15.0 | 24.0 | 0.00 | 0.00 | 0.00 | 36 | 1010.7 |
| 20260503192531 | 60 | 290 | 16.0 | 23.0 | 0.00 | 0.00 | 0.00 | 36 | 1010.7 |
| 20260503192019 | 60 | 289 | 17.0 | 24.0 | 0.00 | 0.00 | 0.00 | 35 | 1010.9 |
| 20260503191518 | 60 | 269 | 15.0 | 24.0 | 0.00 | 0.00 | 0.00 | 37 | 1010.9 |
| 20260503191008 | 60 | 320 | 15.0 | 23.0 | 0.00 | 0.00 | 0.00 | 37 | 1011.1 |
| 20260503190440 | 60 | 307 | 14.0 | 23.0 | 0.00 | 0.00 | 0.00 | 39 | 1011.1 |
| 20260503185938 | 59 | 299 | 14.0 | 21.0 | 0.00 | 0.00 | 0.00 | 38 | 1011.1 |
| 20260503185439 | 60 | 282 | 15.0 | 21.0 | 0.00 | 0.00 | 0.00 | 36 | 1011.1 |
| 20260503185359 | 59 | 280 | 15.0 | 27.0 | 0.00 | 0.00 | 0.00 | 38 | 1011.1 |
| 20260503184415 | 59 | 284 | 15.0 | 27.0 | 0.00 | 0.00 | 0.00 | 39 | 1011.1 |
| 20260503183917 | 59 | 314 | 16.0 | 25.0 | 0.00 | 0.00 | 0.00 | 38 | 1011.2 |
| 20260503183405 | 59 | 298 | 18.0 | 27.0 | 0.00 | 0.00 | 0.00 | 37 | 1011.2 |
| 20260503182900 | 58 | 313 | 17.0 | 28.0 | 0.00 | 0.00 | 0.00 | 38 | 1011.2 |
| 20260503182402 | 58 | 305 | 15.0 | 28.0 | 0.00 | 0.00 | 0.00 | 38 | 1011.2 |
| 20260503181900 | 58 | 260 | 15.0 | 26.0 | 0.00 | 0.00 | 0.00 | 37 | 1011.2 |
| 20260503181400 | 58 | 288 | 16.0 | 26.0 | 0.00 | 0.00 | 0.00 | 37 | 1011.2 |
| 20260503180841 | 59 | 306 | 15.0 | 24.0 | 0.00 | 0.00 | 0.00 | 37 | 1011.2 |
| 20260503180338 | 59 | 305 | 17.0 | 24.0 | 0.00 | 0.00 | 0.00 | 39 | 1011.2 |
| 20260503175839 | 58 | 308 | 18.0 | 24.0 | 0.00 | 0.00 | 0.00 | 37 | 1011.2 |
| 20260503175317 | 58 | 305 | 14.0 | 24.0 | 0.00 | 0.00 | 0.00 | 38 | 1011.3 |
| 20260503174751 | 57 | 307 | 14.0 | 25.0 | 0.00 | 0.00 | 0.00 | 41 | 1011.3 |
| 20260503174243 | 57 | 280 | 17.0 | 25.0 | 0.00 | 0.00 | 0.00 | 40 | 1011.3 |
| 20260503173743 | 56 | 303 | 18.0 | 25.0 | 0.00 | 0.00 | 0.00 | 43 | 1011.2 |
| 20260503173226 | 57 | 288 | 17.0 | 24.0 | 0.00 | 0.00 | 0.00 | 42 | 1011.2 |
| 20260503172705 | 57 | 326 | 15.0 | 23.0 | 0.00 | 0.00 | 0.00 | 41 | 1011.2 |
| 20260503172202 | 57 | 279 | 15.0 | 23.0 | 0.00 | 0.00 | 0.00 | 41 | 1011.2 |
| 20260503171634 | 57 | 305 | 15.0 | 24.0 | 0.00 | 0.00 | 0.00 | 41 | 1011.2 |
| 20260503171133 | 57 | 279 | 15.0 | 24.0 | 0.00 | 0.00 | 0.00 | 41 | 1011.2 |
| 20260503170636 | 56 | 309 | 14.0 | 22.0 | 0.00 | 0.00 | 0.00 | 40 | 1011.2 |
| 20260503170122 | 57 | 302 | 15.0 | 24.0 | 0.00 | 0.00 | 0.00 | 39 | 1011.2 |
| 20260503150711 | 56 | 294 | 12.0 | 19.0 | 0.00 | 0.00 | 0.00 | 44 | 1011.7 |
| 20260503150212 | 56 | 290 | 12.0 | 19.0 | 0.00 | 0.00 | 0.00 | 46 | 1011.7 |
| 20260503131340 | 50 | 315 | 15.0 | 26.0 | 0.00 | 0.00 | 0.00 | 57 | 1011.3 |
| 20260503131041 | 50 | 328 | 15.0 | 26.0 | 0.00 | 0.00 | 0.00 | 57 | 1011.2 |
| 20260503130300 | 50 | 336 | 17.0 | 27.0 | 0.00 | 0.00 | 0.00 | 56 | 1011.2 |
| 20260503110826 | 49 | 309 | 14.0 | 21.0 | 0.00 | 0.00 | 0.00 | 59 | 1010.2 |
| 20260503110323 | 49 | 312 | 13.0 | 20.0 | 0.00 | 0.00 | 0.00 | 60 | 1010.2 |
| 20260503100231 | 49 | 298 | 11.0 | 14.0 | 0.00 | 0.00 | 0.00 | 54 | 1009.1 |
| 20260503081331 | 51 | 304 | 7.0 | 13.0 | 0.00 | 0.00 | 0.00 | 57 | 1008.5 |
| 20260503081054 | 51 | 319 | 8.0 | 13.0 | 0.00 | 0.00 | 0.00 | 57 | 1008.6 |
| 20260503080328 | 51 | 318 | 7.0 | 13.0 | 0.00 | 0.00 | 0.00 | 57 | 1008.6 |
| 20260503072658 | 52 | 344 | 8.0 | 15.0 | 0.00 | 0.00 | 0.00 | 54 | 1008.6 |
| 20260503072133 | 52 | 319 | 8.0 | 14.0 | 0.00 | 0.00 | 0.00 | 54 | 1008.6 |
| 20260503071635 | 52 | 291 | 8.0 | 13.0 | 0.00 | 0.00 | 0.00 | 54 | 1008.6 |
| 20260503071112 | 52 | 333 | 9.0 | 14.0 | 0.00 | 0.00 | 0.00 | 53 | 1008.6 |
| 20260503070548 | 52 | 328 | 8.0 | 14.0 | 0.00 | 0.00 | 0.00 | 53 | 1008.6 |
| 20260503054928 | 54 | 348 | 11.0 | 16.0 | 0.00 | 0.00 | 0.00 | 53 | 1008.8 |
| 20260503054421 | 54 | 315 | 11.0 | 16.0 | 0.00 | 0.00 | 0.00 | 53 | 1008.8 |
| 20260503053921 | 54 | 313 | 10.0 | 16.0 | 0.00 | 0.00 | 0.00 | 54 | 1008.8 |
| 20260503053411 | 54 | 300 | 9.0 | 15.0 | 0.00 | 0.00 | 0.00 | 54 | 1008.8 |
| 20260503052908 | 54 | 328 | 10.0 | 16.0 | 0.00 | 0.00 | 0.00 | 54 | 1008.8 |
| 20260503052406 | 54 | 282 | 9.0 | 16.0 | 0.00 | 0.00 | 0.00 | 54 | 1008.8 |
| 20260503052124 | 54 | 346 | 10.0 | 16.0 | 0.00 | 0.00 | 0.00 | 55 | 1008.8 |
| 20260503051403 | 54 | 296 | 10.0 | 16.0 | 0.00 | 0.00 | 0.00 | 55 | 1008.8 |
| 20260503051128 | 54 | 302 | 8.0 | 15.0 | 0.00 | 0.00 | 0.00 | 56 | 1009.1 |
| 20260503050403 | 54 | 336 | 8.0 | 14.0 | 0.00 | 0.00 | 0.00 | 56 | 1009.1 |
| 20260503045901 | 54 | 335 | 9.0 | 15.0 | 0.00 | 0.00 | 0.00 | 56 | 1009.1 |
| 20260503045401 | 54 | 298 | 9.0 | 14.0 | 0.00 | 0.00 | 0.00 | 56 | 1009.2 |
| 20260503045125 | 54 | 301 | 9.0 | 14.0 | 0.00 | 0.00 | 0.00 | 56 | 1009.2 |
| 20260503044349 | 54 | 319 | 10.0 | 15.0 | 0.00 | 0.00 | 0.00 | 56 | 1009.2 |
| 20260503043851 | 54 | 319 | 11.0 | 16.0 | 0.00 | 0.00 | 0.00 | 57 | 1009.6 |
| 20260503043332 | 54 | 355 | 10.0 | 16.0 | 0.00 | 0.00 | 0.00 | 57 | 1009.6 |
| 20260503043053 | 54 | 317 | 9.0 | 15.0 | 0.00 | 0.00 | 0.00 | 59 | 1009.6 |
| 20260503042556 | 54 | 315 | 8.0 | 13.0 | 0.00 | 0.00 | 0.00 | 58 | 1009.6 |
| 20260503041831 | 54 | 322 | 8.0 | 13.0 | 0.00 | 0.00 | 0.00 | 59 | 1009.6 |
| 20260503041305 | 54 | 306 | 8.0 | 12.0 | 0.00 | 0.00 | 0.00 | 60 | 1009.6 |
| 20260503041014 | 54 | 313 | 8.0 | 12.0 | 0.00 | 0.00 | 0.00 | 60 | 1009.5 |
| 20260503040249 | 54 | 327 | 8.0 | 13.0 | 0.00 | 0.00 | 0.00 | 60 | 1009.5 |
| 20260503035752 | 54 | 292 | 8.0 | 13.0 | 0.00 | 0.00 | 0.00 | 62 | 1009.5 |
| 20260503035227 | 54 | 330 | 9.0 | 14.0 | 0.00 | 0.00 | 0.00 | 64 | 1009.5 |
| 20260503034726 | 54 | 319 | 9.0 | 14.0 | 0.00 | 0.00 | 0.00 | 67 | 1009.5 |
| 20260503034647 | 53 | 321 | 7.0 | 15.0 | 0.00 | 0.00 | 0.00 | 71 | 1009.6 |
| 20260503034304 | 53 | 311 | 9.0 | 15.0 | 0.00 | 0.00 | 0.00 | 71 | 1009.5 |
| 20260503033204 | 53 | 288 | 6.0 | 12.0 | 0.00 | 0.00 | 0.00 | 72 | 1009.6 |
| 20260503032704 | 53 | 307 | 7.0 | 10.0 | 0.00 | 0.00 | 0.00 | 73 | 1009.6 |
| 20260503032200 | 53 | 284 | 6.0 | 10.0 | 0.00 | 0.00 | 0.00 | 73 | 1009.6 |
| 20260503031658 | 53 | 264 | 7.0 | 10.0 | 0.00 | 0.00 | 0.00 | 74 | 1009.6 |
| 20260503031202 | 53 | 287 | 7.0 | 12.0 | 0.00 | 0.00 | 0.00 | 74 | 1009.6 |
| 20260503030858 | 53 | 280 | 6.0 | 12.0 | 0.00 | 0.00 | 0.00 | 75 | 1009.7 |
| 20260503030111 | 53 | 298 | 6.0 | 9.0 | 0.00 | 0.00 | 0.00 | 77 | 1009.7 |
| 20260503025600 | 53 | 259 | 5.0 | 9.0 | 0.00 | 0.00 | 0.00 | 78 | 1009.7 |
| 20260503025058 | 53 | 282 | 5.0 | 9.0 | 0.00 | 0.00 | 0.00 | 79 | 1009.4 |
| 20260503024530 | 53 | 291 | 4.0 | 9.0 | 0.00 | 0.00 | 0.00 | 81 | 1009.4 |
| 20260503024026 | 53 | 226 | 4.0 | 9.0 | 0.00 | 0.00 | 0.00 | 81 | 1009.4 |
| 20260503023525 | 53 | 252 | 5.0 | 9.0 | 0.00 | 0.00 | 0.00 | 81 | 1009.5 |
| 20260503023022 | 53 | 261 | 5.0 | 7.0 | 0.00 | 0.00 | 0.00 | 81 | 1009.5 |
| 20260503022513 | 53 | 244 | 5.0 | 7.0 | 0.00 | 0.00 | 0.00 | 82 | 1009.5 |
| 20260503022010 | 53 | 245 | 5.0 | 9.0 | 0.00 | 0.00 | 0.00 | 82 | 1009.7 |
| 20260503021925 | 53 | 251 | 6.0 | 9.0 | 0.00 | 0.00 | 0.00 | 82 | 1009.7 |
| 20260503021203 | 53 | 234 | 6.0 | 10.0 | 0.00 | 0.00 | 0.00 | 82 | 1009.7 |
| 20260503020436 | 53 | 213 | 7.0 | 10.0 | 0.00 | 0.00 | 0.00 | 82 | 1009.7 |
| 20260503015934 | 53 | 218 | 6.0 | 9.0 | 0.00 | 0.00 | 0.00 | 82 | 1009.7 |
| 20260503015420 | 54 | 249 | 5.0 | 8.0 | 0.00 | 0.00 | 0.00 | 82 | 1009.7 |
| 20260503014922 | 54 | 236 | 4.0 | 8.0 | 0.00 | 0.00 | 0.00 | 82 | 1009.7 |
| 20260503014418 | 54 | 282 | 5.0 | 10.0 | 0.00 | 0.00 | 0.00 | 81 | 1009.7 |
| 20260503013919 | 54 | 224 | 6.0 | 10.0 | 0.00 | 0.00 | 0.00 | 81 | 1009.8 |
| 20260503013348 | 54 | 216 | 5.0 | 9.0 | 0.00 | 0.00 | 0.00 | 81 | 1009.8 |
| 20260503013328 | 54 | 230 | 6.0 | 10.0 | 0.00 | 0.00 | 0.00 | 80 | 1009.8 |
| 20260503012343 | 54 | 227 | 6.0 | 10.0 | 0.00 | 0.00 | 0.00 | 79 | 1009.7 |
| 20260503011823 | 54 | 207 | 6.0 | 10.0 | 0.00 | 0.00 | 0.00 | 78 | 1009.7 |
| 20260503011324 | 54 | 220 | 6.0 | 9.0 | 0.00 | 0.00 | 0.00 | 78 | 1009.7 |
| 20260503011039 | 54 | 215 | 6.0 | 9.0 | 0.00 | 0.00 | 0.00 | 79 | 1009.6 |
| 20260503010802 | 54 | 201 | 5.0 | 9.0 | 0.00 | 0.00 | 0.00 | 79 | 1009.6 |
| 20260503005752 | 54 | 180 | 4.0 | 6.0 | 0.00 | 0.00 | 0.00 | 79 | 1009.6 |
| 20260503005238 | 54 | 199 | 4.0 | 6.0 | 0.00 | 0.00 | 0.00 | 79 | 1009.4 |
| 20260503004741 | 54 | 201 | 4.0 | 7.0 | 0.00 | 0.00 | 0.00 | 80 | 1009.4 |
| 20260503004210 | 54 | 208 | 4.0 | 7.0 | 0.00 | 0.00 | 0.00 | 80 | 1009.4 |
| 20260503003706 | 53 | 197 | 5.0 | 7.0 | 0.00 | 0.00 | 0.00 | 80 | 1009.2 |
| 20260503003430 | 53 | 205 | 5.0 | 7.0 | 0.00 | 0.00 | 0.00 | 80 | 1009.2 |
| 20260503002652 | 53 | 188 | 5.0 | 7.0 | 0.00 | 0.00 | 0.00 | 80 | 1009.2 |
| 20260503002151 | 53 | 205 | 4.0 | 6.0 | 0.00 | 0.00 | 0.00 | 79 | 1009.3 |
| 20260503001653 | 53 | 202 | 4.0 | 6.0 | 0.00 | 0.00 | 0.00 | 79 | 1009.3 |
| 20260503001134 | 54 | 195 | 3.0 | 5.0 | 0.00 | 0.00 | 0.00 | 79 | 1009.3 |
| 20260503000632 | 54 | 170 | 3.0 | 5.0 | 0.00 | 0.00 | 0.00 | 78 | 1009.4 |
| 20260503000134 | 54 | 172 | 3.0 | 5.0 | 0.00 | 0.00 | 0.00 | 78 | 1009.4 |
| 20260502235623 | 54 | 162 | 2.0 | 4.0 | 0.00 | 0.00 | 0.00 | 78 | 1009.4 |
| 20260502235106 | 54 | 156 | 1.0 | 3.0 | 0.00 | 0.00 | 0.00 | 77 | 1009.6 |
| 20260502234550 | 54 | 186 | 2.0 | 6.0 | 0.00 | 0.00 | 0.00 | 77 | 1009.6 |
| 20260502234040 | 54 | 189 | 4.0 | 7.0 | 0.00 | 0.00 | 0.00 | 77 | 1009.6 |
| 20260502233519 | 54 | 182 | 4.0 | 7.0 | 0.00 | 0.00 | 0.00 | 77 | 1009.4 |
| 20260502233017 | 54 | 198 | 3.0 | 6.0 | 0.00 | 0.00 | 0.00 | 77 | 1009.4 |
| 20260502232517 | 54 | 159 | 3.0 | 5.0 | 0.00 | 0.00 | 0.00 | 77 | 1009.3 |